When you browse on this site, cookies collect data to enhance your experience and personalize the content and advertising you see.
Visit our Privacy Policy to learn more. By continuing to use the site, you agree to this use of cookies and data.
  • In Austria
  • List of Countries
  • For 7 days
  • Water Temperature
  • Weather Map
  • News
  • Weather Widgets
  • user-avatar
    Login

    Hourly Weather Nesterovka

    Today, 27 January, Monday

    Time Temperature Precipitation Wind Pressure Humidity
    00:00 -14°C° 0 mm 5 mps 742 mmHg 94%
    01:00 -15°C° 0 mm 5 mps 743 mmHg 94%
    02:00 -15°C° 0 mm 5 mps 743 mmHg 94%
    03:00 -15°C° 0 mm 4 mps 744 mmHg 95%
    04:00 -15°C° 0 mm 4 mps 744 mmHg 96%
    05:00 -15°C° 0 mm 4 mps 744 mmHg 96%
    06:00 -15°C° 0 mm 4 mps 744 mmHg 96%
    07:00 -14°C° 0 mm 3 mps 744 mmHg 96%
    08:00 -14°C° 0.1 mm 4 mps 744 mmHg 96%
    09:00 -13°C° 0.1 mm 5 mps 743 mmHg 95%
    10:00 -12°C° 0.1 mm 5 mps 743 mmHg 94%
    11:00 -11°C° 0.5 mm 6 mps 742 mmHg 94%
    12:00 -11°C° 0.5 mm 7 mps 741 mmHg 94%
    13:00 -11°C° 0.5 mm 8 mps 740 mmHg 93%
    14:00 -8°C° 0.4 mm 8 mps 739 mmHg 93%
    15:00 -8°C° 0.4 mm 9 mps 739 mmHg 94%
    16:00 -5°C° 0.4 mm 9 mps 738 mmHg 94%
    17:00 -8°C° 0.1 mm 10 mps 739 mmHg 91%
    18:00 -9°C° 0.1 mm 10 mps 739 mmHg 89%
    19:00 -10°C° 0.1 mm 10 mps 740 mmHg 86%
    20:00 -12°C° 0 mm 10 mps 742 mmHg 87%
    21:00 -14°C° 0 mm 10 mps 743 mmHg 87%
    22:00 -15°C° 0 mm 10 mps 745 mmHg 87%
    23:00 -17°C° 0 mm 8 mps 746 mmHg 89%

    Tomorrow, 28 January, Tuesday

    Time Temperature Precipitation Wind Pressure Humidity
    00:00 -18°C° 0 mm 7 mps 747 mmHg 90%
    01:00 -19°C° 0 mm 5 mps 749 mmHg 91%
    02:00 -20°C° 0 mm 5 mps 750 mmHg 93%
    03:00 -20°C° 0 mm 4 mps 751 mmHg 95%
    04:00 -22°C° 0 mm 3 mps 752 mmHg 97%
    05:00 -23°C° 0 mm 3 mps 753 mmHg 98%
    06:00 -23°C° 0 mm 2 mps 754 mmHg 98%
    07:00 -24°C° 0 mm 2 mps 754 mmHg 99%
    08:00 -24°C° 0 mm 2 mps 755 mmHg 98%
    09:00 -21°C° 0 mm 1 mps 756 mmHg 98%
    10:00 -21°C° 0 mm 1 mps 757 mmHg 97%
    11:00 -20°C° 0 mm 1 mps 757 mmHg 95%
    12:00 -18°C° 0 mm 1 mps 758 mmHg 94%
    13:00 -17°C° 0 mm 0 mps 758 mmHg 92%
    14:00 -18°C° 0 mm 0 mps 758 mmHg 92%
    15:00 -18°C° 0 mm 0 mps 759 mmHg 92%
    16:00 -19°C° 0 mm 0 mps 759 mmHg 92%
    17:00 -18°C° 0 mm 0 mps 760 mmHg 91%
    18:00 -18°C° 0 mm 1 mps 760 mmHg 90%
    19:00 -18°C° 0 mm 1 mps 760 mmHg 89%
    20:00 -18°C° 0 mm 1 mps 760 mmHg 88%
    21:00 -17°C° 0 mm 1 mps 761 mmHg 88%
    22:00 -19°C° 0 mm 2 mps 761 mmHg 87%
    23:00 -20°C° 0 mm 2 mps 761 mmHg 87%

    Day after tomorrow, 29 January, Wednesday

    Time Temperature Precipitation Wind Pressure Humidity
    00:00 -20°C° 0 mm 2 mps 761 mmHg 87%
    01:00 -20°C° 0 mm 2 mps 761 mmHg 87%
    02:00 -20°C° 0 mm 2 mps 761 mmHg 87%
    03:00 -20°C° 0 mm 2 mps 761 mmHg 87%
    04:00 -20°C° 0 mm 2 mps 761 mmHg 87%
    05:00 -20°C° 0 mm 2 mps 761 mmHg 87%
    06:00 -20°C° 0 mm 2 mps 761 mmHg 86%
    07:00 -20°C° 0 mm 2 mps 761 mmHg 85%
    08:00 -22°C° 0 mm 3 mps 761 mmHg 85%
    09:00 -22°C° 0 mm 3 mps 761 mmHg 84%
    10:00 -21°C° 0 mm 3 mps 761 mmHg 84%
    11:00 -19°C° 0 mm 3 mps 761 mmHg 83%
    12:00 -19°C° 0 mm 4 mps 760 mmHg 81%
    13:00 -17°C° 0 mm 4 mps 760 mmHg 80%
    14:00 -17°C° 0 mm 4 mps 760 mmHg 81%
    15:00 -17°C° 0 mm 4 mps 760 mmHg 81%
    16:00 -17°C° 0 mm 4 mps 759 mmHg 82%
    17:00 -17°C° 0 mm 4 mps 759 mmHg 83%
    18:00 -18°C° 0 mm 4 mps 759 mmHg 83%
    19:00 -19°C° 0 mm 4 mps 759 mmHg 84%
    20:00 -18°C° 0 mm 4 mps 759 mmHg 84%
    21:00 -17°C° 0 mm 4 mps 759 mmHg 84%
    22:00 -16°C° 0 mm 4 mps 759 mmHg 84%
    23:00 -16°C° 0 mm 4 mps 759 mmHg 86%

    30 January, Thursday

    Time Temperature Precipitation Wind Pressure Humidity
    00:00 -17°C° 0 mm 5 mps 758 mmHg 89%
    01:00 -17°C° 0 mm 5 mps 758 mmHg 91%
    02:00 -17°C° 0 mm 5 mps 758 mmHg 92%
    03:00 -17°C° 0 mm 5 mps 758 mmHg 92%
    04:00 -17°C° 0 mm 5 mps 757 mmHg 93%
    05:00 -15°C° 0 mm 5 mps 757 mmHg 93%
    06:00 -15°C° 0 mm 5 mps 757 mmHg 93%
    07:00 -14°C° 0 mm 5 mps 757 mmHg 94%
    08:00 -14°C° 0.1 mm 5 mps 757 mmHg 94%
    09:00 -13°C° 0.1 mm 5 mps 757 mmHg 94%
    10:00 -13°C° 0.1 mm 5 mps 757 mmHg 94%
    11:00 -13°C° 0.2 mm 5 mps 757 mmHg 94%
    12:00 -12°C° 0.2 mm 5 mps 757 mmHg 94%
    13:00 -12°C° 0.2 mm 5 mps 757 mmHg 93%
    14:00 -11°C° 0.1 mm 5 mps 757 mmHg 93%
    15:00 -11°C° 0.1 mm 5 mps 756 mmHg 93%
    16:00 -11°C° 0.1 mm 5 mps 756 mmHg 93%
    17:00 -12°C° 0.1 mm 5 mps 756 mmHg 91%
    18:00 -12°C° 0.1 mm 5 mps 756 mmHg 90%
    19:00 -12°C° 0.1 mm 6 mps 756 mmHg 88%
    20:00 -12°C° 0 mm 6 mps 756 mmHg 87%
    21:00 -13°C° 0 mm 5 mps 756 mmHg 86%
    22:00 -13°C° 0 mm 5 mps 756 mmHg 85%
    23:00 -13°C° 0 mm 5 mps 756 mmHg 86%

    31 January, Friday

    Time Temperature Precipitation Wind Pressure Humidity
    00:00 -14°C° 0 mm 5 mps 756 mmHg 86%
    01:00 -14°C° 0 mm 5 mps 756 mmHg 86%
    02:00 -14°C° 0 mm 5 mps 755 mmHg 86%
    03:00 -15°C° 0 mm 5 mps 755 mmHg 86%
    04:00 -15°C° 0 mm 5 mps 755 mmHg 86%
    05:00 -15°C° 0 mm 5 mps 755 mmHg 86%
    06:00 -15°C° 0 mm 5 mps 755 mmHg 86%
    07:00 -17°C° 0 mm 5 mps 755 mmHg 86%
    08:00 -15°C° 0 mm 5 mps 755 mmHg 86%
    09:00 -15°C° 0 mm 5 mps 755 mmHg 85%
    10:00 -15°C° 0 mm 5 mps 755 mmHg 85%
    11:00 -15°C° 0 mm 5 mps 754 mmHg 85%
    12:00 -14°C° 0 mm 5 mps 754 mmHg 85%
    13:00 -15°C° 0 mm 6 mps 753 mmHg 86%
    14:00 -14°C° 0 mm 6 mps 753 mmHg 86%
    15:00 -14°C° 0 mm 6 mps 752 mmHg 86%
    16:00 -14°C° 0 mm 6 mps 752 mmHg 87%
    17:00 -14°C° 0 mm 6 mps 752 mmHg 87%
    18:00 -14°C° 0 mm 6 mps 752 mmHg 88%
    19:00 -14°C° 0 mm 6 mps 751 mmHg 88%
    20:00 -14°C° 0 mm 6 mps 751 mmHg 89%
    21:00 -14°C° 0 mm 6 mps 751 mmHg 89%
    22:00 -14°C° 0 mm 6 mps 751 mmHg 89%
    23:00 -14°C° 0 mm 6 mps 751 mmHg 90%

    1 February, Saturday

    Time Temperature Precipitation Wind Pressure Humidity
    00:00 -14°C° 0 mm 6 mps 751 mmHg 90%
    01:00 -13°C° 0 mm 5 mps 751 mmHg 91%
    02:00 -14°C° 0.1 mm 6 mps 751 mmHg 91%
    03:00 -14°C° 0.1 mm 6 mps 751 mmHg 91%
    04:00 -14°C° 0.1 mm 6 mps 750 mmHg 91%
    05:00 -14°C° 0.2 mm 6 mps 750 mmHg 92%
    06:00 -14°C° 0.2 mm 6 mps 750 mmHg 92%
    07:00 -14°C° 0.2 mm 6 mps 750 mmHg 93%
    08:00 -13°C° 0.5 mm 5 mps 750 mmHg 93%
    09:00 -13°C° 0.5 mm 5 mps 750 mmHg 93%
    10:00 -13°C° 0.5 mm 5 mps 750 mmHg 93%
    11:00 -13°C° 0.4 mm 5 mps 750 mmHg 93%
    12:00 -11°C° 0.4 mm 4 mps 750 mmHg 94%
    13:00 -11°C° 0.4 mm 4 mps 750 mmHg 94%
    14:00 -11°C° 0.5 mm 4 mps 749 mmHg 94%
    15:00 -9°C° 0.5 mm 3 mps 749 mmHg 95%
    16:00 -9°C° 0.5 mm 3 mps 749 mmHg 95%
    17:00 -9°C° 0.4 mm 3 mps 749 mmHg 95%
    18:00 -8°C° 0.4 mm 2 mps 749 mmHg 95%
    19:00 -7°C° 0.4 mm 2 mps 749 mmHg 96%
    20:00 -7°C° 0.4 mm 2 mps 749 mmHg 96%
    21:00 -7°C° 0.4 mm 2 mps 749 mmHg 96%
    22:00 -7°C° 0.4 mm 2 mps 749 mmHg 96%
    23:00 -6°C° 0.5 mm 1 mps 749 mmHg 96%
    Show more